Find SURCAL 5

NORAD ID: 1577 Int'l Des: 1965-065 Owner: NRL Country: US operational
LEOCIRCULARRETROGRADE

Aktuelle Ansicht

3D-Globus wird geladen...

Über SURCAL 5

Beschreibung wird geladen...

Nächste Überflüge

Passes for default location (London). Set your location on the main map for personalized predictions.

Höhenverlauf

Loading altitude history...

Zweizeiliger Elementsatz

1 01577U 65065J 26149.62821183 .00000097 00000-0 16801-3 0 9990
2 01577 90.0310 212.0391 0071129 154.6250 10.5890 13.36253679960177
Epoch: 29. Mai 2026 • Age: 12 hours

Aktueller Status

Höhe 1191.5 km
Geschwindigkeit 7.23 km/s
Subsatellitenpunkt -46.45°S, 74.56°W
Typ other

Most Searched